BAW14K KJFK-EGLL

Flight info

Callsign BAW14K
Flight time 6h 5m
Altitude 35000
Route GREKI DCT JUDDS DCT MARTN DCT TOPPS N635A RIKAL/M084F360 DCT 53N050W 54N040W 55N030W 55N020W DCT DOGAL DCT BEXET/N0484F370 DCT ENJEX DCT AVZAC DCT INFEC DCT JETZI DCT AMFUL DCT ORZEB/N0447F230 P2 SIRIC
Aircraft B77W/H-SDE1E2E3FGHIJ2J3J4J5M1RWXY/LB1D1

Departure

Time 2026-05-07 13:41
Airport John F. Kennedy International Airport (KJFK)

Arrival

Time 2026-05-07 19:47
Airport London Heathrow Airport (EGLL)
Time Latitude Longitude Altitude Speed Heading
2026-05-07 13:02 40.64915 -73.79060 26 ft 0 kts 151°
2026-05-07 13:26 40.64934 -73.79074 31 ft 4 kts 154°
2026-05-07 13:26 40.64959 -73.79083 30 ft 4 kts 193°
2026-05-07 13:27 40.64980 -73.79066 29 ft 4 kts 233°
2026-05-07 13:27 40.64987 -73.79053 28 ft 0 kts 240°
2026-05-07 13:30 40.64986 -73.79055 28 ft 0 kts 240°
2026-05-07 13:30 40.64982 -73.79064 29 ft 2 kts 240°
2026-05-07 13:30 40.64967 -73.79099 30 ft 6 kts 240°
2026-05-07 13:31 40.64947 -73.79145 27 ft 6 kts 240°
2026-05-07 13:31 40.64922 -73.79204 29 ft 10 kts 240°
2026-05-07 13:31 40.64887 -73.79284 29 ft 10 kts 240°
2026-05-07 13:31 40.64853 -73.79366 30 ft 10 kts 240°
2026-05-07 13:32 40.64818 -73.79446 28 ft 10 kts 240°
2026-05-07 13:32 40.64783 -73.79529 29 ft 11 kts 241°
2026-05-07 13:32 40.64744 -73.79620 26 ft 12 kts 241°
2026-05-07 13:32 40.64701 -73.79709 29 ft 12 kts 222°
2026-05-07 13:33 40.64629 -73.79711 27 ft 12 kts 134°
2026-05-07 13:33 40.64572 -73.79629 29 ft 12 kts 147°
2026-05-07 13:33 40.64488 -73.79600 27 ft 15 kts 174°
2026-05-07 13:33 40.64390 -73.79594 30 ft 16 kts 182°
2026-05-07 13:34 40.64273 -73.79601 28 ft 17 kts 186°
2026-05-07 13:34 40.64038 -73.79567 29 ft 18 kts 150°
2026-05-07 13:34 40.63957 -73.79447 28 ft 18 kts 121°
2026-05-07 13:35 40.63893 -73.79308 23 ft 18 kts 120°
2026-05-07 13:35 40.63831 -73.79168 25 ft 18 kts 121°
2026-05-07 13:35 40.63768 -73.79029 26 ft 18 kts 121°
2026-05-07 13:35 40.63705 -73.78890 27 ft 18 kts 121°
2026-05-07 13:36 40.63640 -73.78752 28 ft 18 kts 122°
2026-05-07 13:36 40.63577 -73.78613 28 ft 18 kts 120°
2026-05-07 13:36 40.63515 -73.78475 28 ft 18 kts 121°
2026-05-07 13:36 40.63449 -73.78330 31 ft 19 kts 121°
2026-05-07 13:37 40.63383 -73.78184 26 ft 19 kts 120°
2026-05-07 13:37 40.63330 -73.78031 27 ft 19 kts 94°
2026-05-07 13:37 40.63328 -73.77862 27 ft 19 kts 108°
2026-05-07 13:37 40.63267 -73.77712 28 ft 19 kts 123°
2026-05-07 13:38 40.63199 -73.77568 31 ft 19 kts 119°
2026-05-07 13:38 40.63135 -73.77420 30 ft 19 kts 120°
2026-05-07 13:38 40.63072 -73.77293 28 ft 4 kts 145°
2026-05-07 13:38 40.63039 -73.77295 29 ft 6 kts 192°
2026-05-07 13:39 40.62987 -73.77327 29 ft 10 kts 211°
2026-05-07 13:39 40.62927 -73.77375 29 ft 10 kts 211°
2026-05-07 13:39 40.62916 -73.77453 29 ft 10 kts 303°
2026-05-07 13:39 40.62957 -73.77525 29 ft 6 kts 303°
2026-05-07 13:40 40.62957 -73.77526 29 ft 0 kts 303°
2026-05-07 13:40 40.62964 -73.77541 29 ft 8 kts 303°
2026-05-07 13:41 40.63077 -73.77784 31 ft 72 kts 299°
2026-05-07 13:41 40.63493 -73.78696 27 ft 157 kts 301°
2026-05-07 13:41 40.64123 -73.80123 382 ft 185 kts 302°
2026-05-07 13:41 40.64754 -73.81513 1551 ft 173 kts 304°
2026-05-07 13:42 40.65395 -73.82897 2425 ft 182 kts 305°
2026-05-07 13:42 40.66052 -73.84314 3215 ft 178 kts 305°
2026-05-07 13:42 40.66687 -73.85697 3958 ft 180 kts 303°
2026-05-07 13:42 40.67352 -73.87090 4724 ft 178 kts 313°
2026-05-07 13:43 40.68485 -73.87754 5259 ft 192 kts 355°
2026-05-07 13:43 40.69806 -73.87172 5724 ft 211 kts 22°
2026-05-07 13:43 40.71102 -73.86156 6192 ft 222 kts 22°
2026-05-07 13:43 40.72453 -73.85085 6676 ft 234 kts 22°
2026-05-07 13:44 40.73933 -73.83912 6883 ft 261 kts 24°
2026-05-07 13:44 40.75248 -73.82864 7113 ft 283 kts 24°
2026-05-07 13:44 40.75891 -73.82349 7222 ft 291 kts 24°
2026-05-07 13:45 40.77653 -73.80928 7828 ft 304 kts 24°
2026-05-07 13:45 40.79468 -73.79457 7989 ft 308 kts 25°
2026-05-07 13:45 40.81296 -73.77970 7998 ft 308 kts 24°
2026-05-07 13:45 40.83130 -73.76482 8574 ft 311 kts 24°
2026-05-07 13:46 40.84970 -73.74992 9406 ft 317 kts 24°
2026-05-07 13:46 40.86873 -73.73456 10102 ft 326 kts 24°
2026-05-07 13:46 40.88865 -73.71856 10545 ft 346 kts 24°
2026-05-07 13:46 40.91006 -73.70144 10746 ft 373 kts 24°
2026-05-07 13:47 40.93314 -73.68294 10951 ft 401 kts 25°
2026-05-07 13:47 40.95746 -73.66332 11445 ft 417 kts 25°
2026-05-07 13:47 40.98254 -73.64294 12143 ft 429 kts 26°
2026-05-07 13:47 41.00341 -73.62596 12781 ft 436 kts 25°
2026-05-07 13:48 41.02942 -73.60478 13671 ft 442 kts 25°
2026-05-07 13:48 41.05594 -73.58318 14393 ft 450 kts 25°
2026-05-07 13:48 41.08279 -73.56132 15186 ft 455 kts 25°
2026-05-07 13:48 41.10950 -73.53956 15991 ft 459 kts 25°
2026-05-07 13:49 41.13687 -73.51727 16789 ft 463 kts 25°
2026-05-07 13:49 41.16449 -73.49477 17565 ft 469 kts 25°
2026-05-07 13:49 41.19252 -73.47194 18295 ft 475 kts 25°
2026-05-07 13:49 41.22082 -73.44887 19007 ft 480 kts 25°
2026-05-07 13:50 41.24937 -73.42555 19625 ft 486 kts 24°
2026-05-07 13:50 41.27842 -73.40182 20166 ft 494 kts 24°
2026-05-07 13:50 41.30784 -73.37776 20729 ft 501 kts 24°
2026-05-07 13:50 41.33778 -73.35324 21292 ft 507 kts 23°
2026-05-07 13:51 41.36808 -73.32840 21812 ft 515 kts 23°
2026-05-07 13:51 41.39295 -73.30796 22335 ft 519 kts 22°
2026-05-07 13:51 41.42377 -73.28259 22976 ft 522 kts 22°
2026-05-07 13:51 41.45494 -73.25693 23454 ft 530 kts 22°
2026-05-07 13:52 41.48656 -73.23088 23865 ft 537 kts 22°
2026-05-07 13:52 41.51852 -73.20448 24323 ft 543 kts 22°
2026-05-07 13:52 41.55034 -73.17815 24791 ft 547 kts 22°
2026-05-07 13:52 41.58290 -73.15149 25234 ft 546 kts 19°
2026-05-07 13:53 41.61704 -73.13084 25547 ft 531 kts
2026-05-07 13:53 41.65230 -73.11987 25995 ft 513 kts 354°
2026-05-07 13:53 41.68731 -73.11629 26468 ft 497 kts 344°
2026-05-07 13:53 41.72098 -73.12021 26835 ft 479 kts 335°
2026-05-07 13:54 41.75423 -73.12672 27152 ft 485 kts 335°
2026-05-07 13:54 41.78778 -73.13318 27656 ft 488 kts 335°
2026-05-07 13:54 41.82148 -73.13938 28145 ft 491 kts 335°
2026-05-07 13:54 41.85552 -73.14544 28535 ft 496 kts 336°
2026-05-07 13:55 41.88991 -73.15142 28875 ft 501 kts 336°
2026-05-07 13:55 41.92458 -73.15735 29214 ft 504 kts 336°
2026-05-07 13:55 41.95905 -73.16317 29553 ft 507 kts 336°
2026-05-07 13:55 41.99417 -73.16905 30073 ft 507 kts 335°
2026-05-07 13:56 42.02881 -73.17484 30600 ft 503 kts 335°
2026-05-07 13:56 42.06337 -73.18062 31120 ft 499 kts 335°
2026-05-07 13:56 42.09787 -73.18644 31586 ft 497 kts 334°
2026-05-07 13:56 42.13212 -73.19229 32010 ft 496 kts 334°
2026-05-07 13:57 42.16630 -73.19818 32461 ft 494 kts 334°
2026-05-07 13:57 42.20033 -73.20403 32960 ft 491 kts 334°
2026-05-07 13:57 42.23427 -73.20987 33350 ft 490 kts 334°
2026-05-07 13:57 42.26803 -73.21567 33747 ft 489 kts 334°
2026-05-07 13:58 42.30174 -73.22152 34065 ft 488 kts 334°
2026-05-07 13:58 42.33551 -73.22742 34396 ft 487 kts 334°
2026-05-07 13:58 42.36874 -73.23319 34743 ft 486 kts 334°
2026-05-07 13:58 42.40231 -73.23904 35000 ft 489 kts 335°
2026-05-07 13:59 42.43625 -73.24496 34916 ft 492 kts 335°
2026-05-07 13:59 42.50392 -73.25655 34908 ft 488 kts 335°
2026-05-07 13:59 42.53834 -73.25923 34894 ft 515 kts 348°
2026-05-07 14:00 42.57484 -73.24882 34922 ft 558 kts
2026-05-07 14:00 42.61012 -73.22314 34967 ft 593 kts 27°
2026-05-07 14:00 42.64066 -73.18383 34935 ft 616 kts 44°
2026-05-07 14:01 42.68994 -73.08715 34923 ft 626 kts 54°
2026-05-07 14:01 42.73622 -72.98772 34918 ft 625 kts 52°
2026-05-07 14:02 42.78547 -72.89112 34907 ft 615 kts 48°
2026-05-07 14:02 42.83639 -72.79763 34900 ft 613 kts 47°
2026-05-07 14:03 42.88742 -72.70454 34900 ft 613 kts 48°
2026-05-07 14:03 42.93807 -72.61077 34920 ft 613 kts 49°
2026-05-07 14:04 42.98830 -72.51669 34868 ft 611 kts 49°
2026-05-07 14:04 43.03814 -72.42282 34880 ft 610 kts 49°
2026-05-07 14:05 43.08768 -72.32942 34888 ft 609 kts 49°
2026-05-07 14:05 43.13738 -72.23559 34841 ft 608 kts 49°
2026-05-07 14:06 43.18681 -72.14193 34873 ft 606 kts 49°
2026-05-07 14:06 43.23611 -72.04824 34869 ft 605 kts 49°
2026-05-07 14:07 43.28443 -71.95607 34861 ft 602 kts 49°
2026-05-07 14:07 43.33286 -71.86344 34814 ft 601 kts 49°
2026-05-07 14:08 43.38165 -71.76982 34852 ft 603 kts 50°
2026-05-07 14:08 43.43053 -71.67577 34853 ft 605 kts 50°
2026-05-07 14:09 43.47957 -71.58108 34857 ft 608 kts 50°
2026-05-07 14:09 43.52850 -71.48623 34830 ft 604 kts 50°
2026-05-07 14:10 43.57665 -71.39256 34828 ft 601 kts 50°
2026-05-07 14:10 43.62491 -71.29846 34844 ft 601 kts 50°
2026-05-07 14:11 43.67316 -71.20411 34845 ft 600 kts 51°
2026-05-07 14:11 43.72114 -71.10993 34831 ft 598 kts 51°
2026-05-07 14:12 43.76084 -71.03177 34816 ft 596 kts 51°
2026-05-07 14:12 43.80774 -70.93919 34826 ft 593 kts 51°
2026-05-07 14:13 43.85497 -70.84563 34815 ft 591 kts 51°
2026-05-07 14:13 43.90201 -70.75213 34814 ft 590 kts 51°
2026-05-07 14:14 43.94892 -70.65869 34843 ft 590 kts 51°
2026-05-07 14:14 43.99546 -70.56570 34824 ft 589 kts 51°
2026-05-07 14:15 44.04209 -70.47214 34814 ft 588 kts 52°
2026-05-07 14:15 44.08865 -70.37843 34827 ft 588 kts 52°
2026-05-07 14:16 44.13511 -70.28461 34803 ft 587 kts 52°
2026-05-07 14:16 44.18102 -70.19163 34807 ft 586 kts 52°
2026-05-07 14:17 44.22717 -70.09788 34831 ft 586 kts 52°
2026-05-07 14:17 44.27329 -70.00387 34809 ft 586 kts 52°
2026-05-07 14:18 44.31843 -69.91155 34793 ft 586 kts 52°
2026-05-07 14:18 44.36431 -69.81743 34832 ft 586 kts 53°
2026-05-07 14:19 44.41011 -69.72313 34759 ft 585 kts 53°
2026-05-07 14:19 44.45018 -69.64041 34773 ft 584 kts 53°
2026-05-07 14:20 44.49570 -69.54615 34777 ft 584 kts 53°
2026-05-07 14:20 44.54113 -69.45179 34777 ft 583 kts 53°
2026-05-07 14:21 44.58640 -69.35739 34789 ft 582 kts 54°
2026-05-07 14:21 44.63153 -69.26300 34781 ft 581 kts 54°
2026-05-07 14:22 44.67624 -69.16919 34788 ft 580 kts 54°
2026-05-07 14:22 44.72097 -69.07502 34767 ft 578 kts 54°
2026-05-07 14:23 44.76456 -68.98298 34776 ft 577 kts 54°
2026-05-07 14:23 44.80899 -68.88885 34779 ft 577 kts 54°
2026-05-07 14:24 44.85341 -68.79443 34778 ft 577 kts 54°
2026-05-07 14:24 44.89779 -68.69978 34779 ft 578 kts 54°
2026-05-07 14:25 44.94206 -68.60506 34790 ft 579 kts 55°
2026-05-07 14:25 44.98602 -68.51066 34779 ft 579 kts 55°
2026-05-07 14:26 45.03012 -68.41566 34769 ft 578 kts 55°
2026-05-07 14:26 45.07412 -68.32058 34769 ft 577 kts 55°
2026-05-07 14:27 45.11805 -68.22532 34773 ft 577 kts 56°
2026-05-07 14:27 45.16186 -68.12998 34770 ft 576 kts 56°
2026-05-07 14:28 45.20521 -68.03533 34769 ft 576 kts 56°
2026-05-07 14:28 45.24724 -67.94329 34781 ft 575 kts 56°
2026-05-07 14:29 45.29061 -67.84797 34775 ft 574 kts 56°
2026-05-07 14:29 45.33405 -67.75296 34755 ft 571 kts 54°
2026-05-07 14:30 45.38361 -67.66502 34811 ft 568 kts 46°
2026-05-07 14:30 45.43622 -67.58102 34773 ft 568 kts 46°
2026-05-07 14:31 45.48848 -67.49743 34761 ft 569 kts 46°
2026-05-07 14:31 45.54068 -67.41255 34763 ft 569 kts 47°
2026-05-07 14:32 45.59262 -67.32721 34759 ft 568 kts 47°
2026-05-07 14:32 45.64450 -67.24166 34760 ft 568 kts 47°
2026-05-07 14:33 45.69591 -67.15674 34768 ft 568 kts 48°
2026-05-07 14:33 45.74764 -67.07109 34749 ft 568 kts 48°
2026-05-07 14:34 45.79840 -66.98678 34701 ft 567 kts 48°
2026-05-07 14:34 45.84979 -66.90118 34768 ft 566 kts 48°
2026-05-07 14:35 45.90114 -66.81537 34753 ft 567 kts 48°
2026-05-07 14:35 45.95246 -66.72931 34739 ft 568 kts 48°
2026-05-07 14:36 46.00373 -66.64310 34763 ft 567 kts 49°
2026-05-07 14:36 46.05500 -66.55664 34735 ft 566 kts 49°
2026-05-07 14:37 46.10604 -66.47023 34720 ft 565 kts 49°
2026-05-07 14:37 46.18193 -66.34131 34728 ft 563 kts 49°
2026-05-07 14:38 46.23254 -66.25500 34716 ft 563 kts 49°
2026-05-07 14:38 46.28319 -66.16835 34714 ft 562 kts 49°
2026-05-07 14:39 46.33340 -66.08218 34688 ft 562 kts 49°
2026-05-07 14:39 46.38246 -65.99772 34706 ft 562 kts 49°
2026-05-07 14:40 46.43210 -65.91202 34713 ft 562 kts 50°
2026-05-07 14:40 46.48242 -65.82485 34711 ft 563 kts 50°
2026-05-07 14:41 46.53239 -65.73801 34702 ft 563 kts 50°
2026-05-07 14:41 46.58265 -65.65039 34707 ft 563 kts 50°
2026-05-07 14:42 46.63279 -65.56271 34715 ft 563 kts 50°
2026-05-07 14:42 46.68287 -65.47485 34702 ft 563 kts 50°
2026-05-07 14:43 46.73245 -65.38759 34693 ft 562 kts 50°
2026-05-07 14:43 46.78216 -65.29983 34693 ft 561 kts 50°
2026-05-07 14:44 46.83181 -65.21189 34697 ft 560 kts 51°
2026-05-07 14:44 46.88121 -65.12408 34684 ft 558 kts 51°
2026-05-07 14:45 46.93049 -65.03625 34685 ft 558 kts 51°
2026-05-07 14:45 46.97864 -64.95015 34685 ft 558 kts 51°
2026-05-07 14:46 47.02769 -64.86217 34680 ft 559 kts 51°
2026-05-07 14:46 47.06965 -64.78666 34672 ft 558 kts 51°
2026-05-07 14:47 47.11876 -64.69803 34684 ft 558 kts 51°
2026-05-07 14:47 47.16771 -64.60940 34672 ft 558 kts 51°
2026-05-07 14:48 47.21622 -64.52128 34671 ft 558 kts 51°
2026-05-07 14:48 47.26496 -64.43246 34674 ft 557 kts 51°
2026-05-07 14:49 47.31362 -64.34350 34666 ft 557 kts 51°
2026-05-07 14:49 47.36216 -64.25448 34660 ft 556 kts 52°
2026-05-07 14:50 47.41051 -64.16549 34653 ft 555 kts 51°
2026-05-07 14:50 47.45867 -64.07657 34663 ft 554 kts 51°
2026-05-07 14:51 47.50619 -63.98857 34646 ft 554 kts 51°
2026-05-07 14:51 47.55414 -63.89945 34652 ft 553 kts 52°
2026-05-07 14:52 47.60170 -63.81081 34671 ft 553 kts 52°
2026-05-07 14:52 47.64955 -63.72131 34649 ft 553 kts 52°
2026-05-07 14:53 47.69734 -63.63161 34641 ft 553 kts 52°
2026-05-07 14:53 47.74493 -63.54202 34644 ft 552 kts 52°
2026-05-07 14:54 47.79248 -63.45220 34651 ft 552 kts 52°
2026-05-07 14:54 47.83933 -63.36341 34638 ft 551 kts 52°
2026-05-07 14:55 47.88637 -63.27396 34642 ft 551 kts 52°
2026-05-07 14:55 47.93355 -63.18395 34642 ft 551 kts 52°
2026-05-07 14:56 47.98069 -63.09374 34650 ft 550 kts 53°
2026-05-07 14:56 48.02761 -63.00362 34652 ft 552 kts 53°
2026-05-07 14:57 48.07371 -62.91480 34631 ft 553 kts 53°
2026-05-07 14:57 48.12083 -62.82372 34639 ft 551 kts 53°
2026-05-07 14:58 48.16765 -62.73290 34644 ft 550 kts 53°
2026-05-07 14:58 48.21440 -62.64192 34650 ft 550 kts 53°
2026-05-07 14:59 48.26069 -62.55151 34654 ft 550 kts 53°
2026-05-07 14:59 48.30717 -62.46046 34647 ft 549 kts 53°
2026-05-07 15:00 48.35357 -62.36924 34647 ft 549 kts 53°
2026-05-07 15:00 48.39991 -62.27783 34657 ft 548 kts 53°
2026-05-07 15:01 48.44605 -62.18650 34628 ft 547 kts 53°
2026-05-07 15:01 48.48425 -62.11066 34646 ft 546 kts 53°
2026-05-07 15:02 48.53013 -62.01929 34649 ft 546 kts 53°
2026-05-07 15:02 48.57534 -61.92896 34655 ft 546 kts 54°
2026-05-07 15:03 48.62106 -61.83729 34648 ft 546 kts 54°
2026-05-07 15:03 48.66667 -61.74553 34656 ft 546 kts 54°
2026-05-07 15:04 48.71199 -61.65404 34662 ft 546 kts 54°
2026-05-07 15:04 48.75747 -61.56192 34656 ft 545 kts 54°
2026-05-07 15:05 48.80292 -61.46954 34655 ft 545 kts 54°
2026-05-07 15:05 48.84817 -61.37725 34656 ft 545 kts 54°
2026-05-07 15:06 48.89330 -61.28489 34671 ft 544 kts 55°
2026-05-07 15:06 48.93830 -61.19248 34667 ft 543 kts 55°
2026-05-07 15:07 48.98284 -61.10070 34654 ft 541 kts 55°
2026-05-07 15:07 49.02733 -61.00870 34665 ft 540 kts 56°
2026-05-07 15:08 49.07124 -60.91760 34677 ft 540 kts 56°
2026-05-07 15:08 49.11565 -60.82515 34678 ft 539 kts 56°
2026-05-07 15:09 49.15997 -60.73256 34679 ft 539 kts 56°
2026-05-07 15:09 49.20387 -60.64056 34684 ft 539 kts 57°
2026-05-07 15:10 49.24795 -60.54781 34674 ft 538 kts 57°
2026-05-07 15:10 49.29191 -60.45499 34689 ft 538 kts 57°
2026-05-07 15:11 49.33573 -60.36216 34690 ft 538 kts 57°
2026-05-07 15:11 49.37961 -60.26893 34705 ft 537 kts 58°
2026-05-07 15:12 49.42298 -60.17641 34694 ft 536 kts 58°
2026-05-07 15:12 49.46645 -60.08335 34714 ft 535 kts 58°
2026-05-07 15:13 49.50837 -59.99331 34681 ft 534 kts 58°
2026-05-07 15:13 49.55149 -59.90039 34703 ft 532 kts 58°
2026-05-07 15:14 49.59433 -59.80774 34706 ft 530 kts 58°
2026-05-07 15:14 49.63678 -59.71560 34707 ft 530 kts 58°
2026-05-07 15:15 49.67939 -59.62281 34712 ft 529 kts 59°
2026-05-07 15:15 49.72182 -59.53007 34725 ft 528 kts 59°
2026-05-07 15:16 49.76413 -59.43726 34725 ft 527 kts 59°
2026-05-07 15:16 49.80606 -59.34499 34729 ft 527 kts 59°
2026-05-07 15:17 49.84821 -59.25191 34727 ft 527 kts 60°
2026-05-07 15:17 49.89030 -59.15859 34731 ft 528 kts 60°
2026-05-07 15:18 49.93237 -59.06503 34746 ft 529 kts 60°
2026-05-07 15:18 49.97391 -58.97230 34746 ft 530 kts 60°
2026-05-07 15:19 50.01589 -58.87829 34690 ft 530 kts 60°
2026-05-07 15:19 50.05774 -58.78424 34749 ft 528 kts 60°
2026-05-07 15:20 50.09924 -58.69061 34740 ft 528 kts 60°
2026-05-07 15:20 50.14090 -58.59633 34748 ft 527 kts 61°
2026-05-07 15:21 50.18232 -58.50223 34758 ft 526 kts 61°
2026-05-07 15:21 50.22324 -58.40891 34772 ft 525 kts 61°
2026-05-07 15:22 50.26441 -58.31469 34772 ft 525 kts 61°
2026-05-07 15:22 50.30558 -58.22013 34766 ft 526 kts 61°
2026-05-07 15:23 50.34652 -58.12575 34796 ft 528 kts 61°
2026-05-07 15:23 50.38776 -58.03035 34794 ft 530 kts 62°
2026-05-07 15:24 50.42855 -57.93566 34812 ft 531 kts 62°
2026-05-07 15:24 50.46996 -57.83919 34804 ft 533 kts 62°
2026-05-07 15:25 50.51132 -57.74246 34810 ft 533 kts 62°
2026-05-07 15:25 50.55235 -57.64619 34813 ft 533 kts 61°
2026-05-07 15:26 50.59350 -57.54927 34830 ft 533 kts 61°
2026-05-07 15:26 50.63462 -57.45202 34832 ft 534 kts 61°
2026-05-07 15:27 50.67573 -57.35444 34842 ft 534 kts 61°
2026-05-07 15:27 50.71685 -57.25649 34843 ft 534 kts 61°
2026-05-07 15:28 50.75762 -57.15899 34863 ft 535 kts 61°
2026-05-07 15:28 50.79860 -57.06062 34870 ft 535 kts 61°
2026-05-07 15:29 50.83887 -56.96360 34875 ft 536 kts 61°
2026-05-07 15:29 50.87976 -56.86472 34877 ft 537 kts 62°
2026-05-07 15:30 50.92053 -56.76576 34887 ft 537 kts 61°
2026-05-07 15:30 50.96129 -56.66643 34902 ft 537 kts 61°
2026-05-07 15:31 51.00161 -56.56783 34900 ft 538 kts 62°
2026-05-07 15:31 51.04233 -56.46784 34908 ft 538 kts 62°
2026-05-07 15:32 51.08288 -56.36793 34914 ft 537 kts 61°
2026-05-07 15:32 51.12328 -56.26794 34909 ft 537 kts 61°
2026-05-07 15:33 51.16344 -56.16816 34912 ft 538 kts 61°
2026-05-07 15:33 51.20372 -56.06771 34915 ft 537 kts 62°
2026-05-07 15:34 51.24313 -55.96906 34930 ft 537 kts 62°
2026-05-07 15:34 51.28318 -55.86843 34931 ft 536 kts 62°
2026-05-07 15:35 51.32310 -55.76773 34933 ft 536 kts 62°
2026-05-07 15:35 51.36286 -55.66703 34935 ft 536 kts 62°
2026-05-07 15:36 51.40253 -55.56617 34932 ft 535 kts 62°
2026-05-07 15:36 51.44210 -55.46517 34940 ft 534 kts 62°
2026-05-07 15:37 51.48127 -55.36480 34938 ft 534 kts 62°
2026-05-07 15:37 51.52057 -55.26369 34939 ft 533 kts 62°
2026-05-07 15:38 51.55973 -55.16255 34906 ft 533 kts 62°
2026-05-07 15:38 51.59870 -55.06150 34946 ft 532 kts 62°
2026-05-07 15:39 51.63712 -54.96148 34948 ft 531 kts 62°
2026-05-07 15:39 51.67596 -54.85998 34939 ft 531 kts 63°
2026-05-07 15:40 51.71442 -54.75907 34952 ft 531 kts 63°
2026-05-07 15:40 51.75295 -54.65754 34953 ft 531 kts 63°
2026-05-07 15:41 51.79143 -54.55578 34967 ft 530 kts 63°
2026-05-07 15:41 51.82524 -54.45058 34972 ft 525 kts 70°
2026-05-07 15:42 51.85578 -54.34337 34976 ft 524 kts 70°
2026-05-07 15:42 51.88619 -54.23592 34974 ft 525 kts 70°
2026-05-07 15:43 51.91683 -54.12859 34987 ft 525 kts 70°
2026-05-07 15:43 51.94751 -54.02136 34992 ft 525 kts 70°
2026-05-07 15:44 51.97743 -53.91641 34982 ft 524 kts 70°
2026-05-07 15:44 52.00784 -53.80916 34992 ft 526 kts 70°
2026-05-07 15:45 52.03835 -53.70097 35005 ft 527 kts 70°
2026-05-07 15:45 52.06886 -53.59230 35004 ft 528 kts 70°
2026-05-07 15:46 52.11450 -53.42880 35006 ft 530 kts 70°
2026-05-07 15:47 52.14465 -53.32019 35019 ft 530 kts 70°
2026-05-07 15:47 52.17489 -53.21071 35019 ft 529 kts 70°
2026-05-07 15:48 52.20500 -53.10123 35022 ft 529 kts 70°
2026-05-07 15:48 52.23462 -52.99296 35018 ft 529 kts 70°
2026-05-07 15:49 52.25950 -52.90165 35003 ft 529 kts 70°
2026-05-07 15:49 52.29411 -52.77400 35036 ft 529 kts 70°
2026-05-07 15:50 52.31900 -52.68176 35041 ft 530 kts 70°
2026-05-07 15:50 52.34849 -52.57200 35036 ft 531 kts 70°
2026-05-07 15:51 52.37814 -52.46111 35044 ft 532 kts 70°
2026-05-07 15:51 52.40775 -52.34986 35051 ft 534 kts 70°
2026-05-07 15:52 52.43740 -52.23792 35050 ft 535 kts 70°
2026-05-07 15:52 52.46694 -52.12583 35049 ft 535 kts 70°
2026-05-07 15:53 52.49622 -52.01418 35066 ft 535 kts 71°
2026-05-07 15:53 52.52418 -51.90705 35064 ft 535 kts 71°
2026-05-07 15:54 52.55338 -51.79461 35061 ft 534 kts 71°
2026-05-07 15:54 52.58243 -51.68217 35064 ft 533 kts 71°
2026-05-07 15:55 52.61117 -51.57040 35072 ft 533 kts 71°
2026-05-07 15:55 52.63995 -51.45792 35079 ft 532 kts 71°
2026-05-07 15:56 52.66857 -51.34545 35079 ft 532 kts 71°
2026-05-07 15:56 52.69717 -51.23255 35082 ft 532 kts 71°
2026-05-07 15:57 52.72561 -51.11967 35090 ft 532 kts 71°
2026-05-07 15:57 52.75391 -51.00679 35090 ft 532 kts 71°
2026-05-07 15:58 52.78146 -50.89638 35090 ft 532 kts 71°
2026-05-07 15:58 52.80957 -50.78310 35090 ft 532 kts 71°
2026-05-07 15:59 52.83758 -50.66968 35088 ft 532 kts 70°
2026-05-07 15:59 52.86548 -50.55611 35100 ft 532 kts 71°
2026-05-07 16:00 52.89325 -50.44245 35101 ft 533 kts 71°
2026-05-07 16:00 52.92097 -50.32845 35105 ft 533 kts 71°
2026-05-07 16:01 52.94859 -50.21423 35110 ft 534 kts 71°
2026-05-07 16:01 52.97597 -50.10047 35108 ft 534 kts 70°
2026-05-07 16:02 53.00201 -49.98724 35115 ft 532 kts 75°
2026-05-07 16:02 53.02017 -49.86872 35124 ft 529 kts 80°
2026-05-07 16:03 53.03651 -49.74935 35113 ft 529 kts 81°
2026-05-07 16:03 53.05295 -49.63009 35103 ft 529 kts 79°
2026-05-07 16:04 53.06955 -49.51160 35124 ft 530 kts 79°
2026-05-07 16:04 53.08632 -49.39209 35124 ft 530 kts 79°
2026-05-07 16:05 53.10295 -49.27249 35118 ft 530 kts 79°
2026-05-07 16:05 53.11946 -49.15263 35127 ft 530 kts 80°
2026-05-07 16:06 53.13573 -49.03342 35115 ft 531 kts 79°
2026-05-07 16:06 53.15184 -48.91448 35137 ft 531 kts 79°
2026-05-07 16:07 53.16796 -48.79439 35112 ft 531 kts 79°
2026-05-07 16:07 53.18390 -48.67476 35126 ft 531 kts 79°
2026-05-07 16:08 53.19980 -48.55444 35131 ft 531 kts 79°
2026-05-07 16:08 53.21557 -48.43399 35137 ft 531 kts 79°
2026-05-07 16:09 53.23113 -48.31424 35139 ft 531 kts 79°
2026-05-07 16:09 53.24666 -48.19367 35138 ft 531 kts 79°
2026-05-07 16:10 53.26206 -48.07312 35141 ft 531 kts 79°
2026-05-07 16:10 53.27718 -47.95367 35147 ft 531 kts 80°
2026-05-07 16:11 53.29235 -47.83285 35142 ft 530 kts 79°
2026-05-07 16:11 53.30732 -47.71248 35148 ft 528 kts 79°
2026-05-07 16:12 53.32205 -47.59307 35151 ft 527 kts 79°
2026-05-07 16:12 53.33674 -47.47287 35148 ft 526 kts 79°
2026-05-07 16:13 53.35128 -47.35288 35152 ft 525 kts 80°
2026-05-07 16:13 53.36567 -47.23297 35159 ft 525 kts 79°
2026-05-07 16:14 53.37987 -47.11363 35158 ft 526 kts 80°
2026-05-07 16:14 53.39387 -46.99497 35159 ft 526 kts 80°
2026-05-07 16:15 53.40795 -46.87440 35161 ft 525 kts 79°
2026-05-07 16:15 53.42186 -46.75425 35168 ft 525 kts 79°
2026-05-07 16:16 53.43566 -46.63400 35162 ft 524 kts 80°
2026-05-07 16:16 53.44930 -46.51390 35166 ft 524 kts 80°
2026-05-07 16:17 53.46284 -46.39359 35171 ft 524 kts 80°
2026-05-07 16:17 53.47615 -46.27415 35172 ft 524 kts 80°
2026-05-07 16:18 53.48943 -46.15378 35181 ft 524 kts 80°
2026-05-07 16:18 53.50252 -46.03397 35172 ft 524 kts 79°
2026-05-07 16:19 53.51547 -45.91438 35186 ft 524 kts 79°
2026-05-07 16:19 53.52839 -45.79393 35190 ft 524 kts 79°
2026-05-07 16:20 53.54118 -45.67338 35185 ft 524 kts 80°
2026-05-07 16:20 53.55380 -45.55323 35185 ft 524 kts 80°
2026-05-07 16:21 53.56637 -45.43230 35190 ft 524 kts 79°
2026-05-07 16:21 53.57881 -45.31141 35195 ft 524 kts 80°
2026-05-07 16:22 53.59115 -45.19025 35195 ft 524 kts 80°
2026-05-07 16:22 53.60328 -45.06985 35199 ft 524 kts 79°
2026-05-07 16:23 53.61516 -44.95067 35197 ft 523 kts 79°
2026-05-07 16:23 53.62708 -44.82984 35203 ft 522 kts 79°
2026-05-07 16:24 53.63889 -44.70892 35203 ft 522 kts 79°
2026-05-07 16:24 53.65056 -44.58804 35201 ft 522 kts 79°
2026-05-07 16:25 53.66202 -44.46795 35203 ft 522 kts 80°
2026-05-07 16:25 53.67345 -44.34692 35212 ft 522 kts 80°
2026-05-07 16:26 53.68475 -44.22587 35213 ft 523 kts 79°
2026-05-07 16:26 53.69593 -44.10472 35216 ft 521 kts 79°
2026-05-07 16:27 53.70681 -43.98553 35217 ft 520 kts 79°
2026-05-07 16:27 53.71770 -43.86481 35223 ft 519 kts 79°
2026-05-07 16:28 53.72844 -43.74430 35216 ft 519 kts 79°
2026-05-07 16:28 53.73900 -43.62452 35242 ft 519 kts 79°
2026-05-07 16:29 53.74952 -43.50365 35229 ft 520 kts 79°
2026-05-07 16:29 53.75994 -43.38264 35226 ft 520 kts 79°
2026-05-07 16:30 53.77019 -43.26196 35234 ft 520 kts 79°
2026-05-07 16:30 53.78035 -43.14091 35236 ft 519 kts 79°
2026-05-07 16:31 53.79037 -43.01995 35246 ft 519 kts 79°
2026-05-07 16:31 53.80011 -42.90085 35235 ft 518 kts 79°
2026-05-07 16:32 53.80980 -42.78098 35234 ft 516 kts 79°
2026-05-07 16:32 53.81941 -42.66055 35236 ft 516 kts 79°
2026-05-07 16:33 53.82889 -42.54018 35239 ft 515 kts 79°
2026-05-07 16:33 53.83823 -42.41992 35253 ft 515 kts 79°
2026-05-07 16:34 53.84748 -42.29940 35245 ft 516 kts 79°
2026-05-07 16:34 53.85661 -42.17867 35250 ft 517 kts 79°
2026-05-07 16:35 53.86563 -42.05775 35256 ft 517 kts 80°
2026-05-07 16:35 53.87436 -41.93909 35251 ft 518 kts 80°
2026-05-07 16:36 53.88315 -41.81787 35273 ft 518 kts 80°
2026-05-07 16:36 53.89182 -41.69662 35256 ft 519 kts 80°
2026-05-07 16:37 53.89894 -41.59563 35260 ft 519 kts 80°
2026-05-07 16:37 53.90741 -41.47401 35263 ft 519 kts 80°
2026-05-07 16:38 53.91574 -41.35249 35282 ft 519 kts 80°
2026-05-07 16:38 53.92528 -41.21105 35300 ft 518 kts 80°
2026-05-07 16:39 53.93200 -41.10980 35284 ft 519 kts 80°
2026-05-07 16:39 53.93987 -40.98964 35278 ft 519 kts 80°
2026-05-07 16:40 53.94772 -40.86784 35279 ft 518 kts 80°
2026-05-07 16:40 53.95543 -40.74618 35279 ft 518 kts 80°
2026-05-07 16:41 53.96303 -40.62439 35292 ft 518 kts 80°
2026-05-07 16:41 53.97050 -40.50250 35290 ft 518 kts 80°
2026-05-07 16:42 53.97781 -40.38116 35296 ft 518 kts 80°
2026-05-07 16:42 53.98503 -40.25945 35293 ft 518 kts 80°
2026-05-07 16:43 53.99214 -40.13761 35291 ft 517 kts 80°
2026-05-07 16:43 53.99934 -40.01593 35294 ft 516 kts 78°
2026-05-07 16:44 54.01336 -39.89871 35301 ft 511 kts 71°
2026-05-07 16:44 54.03061 -39.78218 35299 ft 511 kts 71°
2026-05-07 16:45 54.04782 -39.66481 35303 ft 511 kts 71°
2026-05-07 16:45 54.06459 -39.54704 35304 ft 512 kts 71°
2026-05-07 16:46 54.08106 -39.42911 35315 ft 512 kts 71°
2026-05-07 16:46 54.09746 -39.31068 35316 ft 513 kts 71°
2026-05-07 16:47 54.11375 -39.19221 35302 ft 512 kts 71°
2026-05-07 16:47 54.12979 -39.07467 35315 ft 511 kts 71°
2026-05-07 16:48 54.14553 -38.95856 35317 ft 509 kts 71°
2026-05-07 16:48 54.16136 -38.84083 35348 ft 509 kts 71°
2026-05-07 16:49 54.17710 -38.72288 35323 ft 509 kts 71°
2026-05-07 16:49 54.19271 -38.60487 35322 ft 509 kts 71°
2026-05-07 16:50 54.20819 -38.48686 35323 ft 509 kts 71°
2026-05-07 16:50 54.22347 -38.36950 35330 ft 509 kts 71°
2026-05-07 16:51 54.23876 -38.25109 35334 ft 511 kts 71°
2026-05-07 16:51 54.25397 -38.13227 35335 ft 511 kts 71°
2026-05-07 16:52 54.26905 -38.01338 35340 ft 511 kts 71°
2026-05-07 16:52 54.28379 -37.89616 35336 ft 510 kts 71°
2026-05-07 16:53 54.29852 -37.77817 35332 ft 509 kts 71°
2026-05-07 16:53 54.31319 -37.65954 35340 ft 509 kts 71°
2026-05-07 16:54 54.32774 -37.54092 35334 ft 508 kts 71°
2026-05-07 16:54 54.34217 -37.42229 35335 ft 508 kts 71°
2026-05-07 16:55 54.35646 -37.30365 35337 ft 507 kts 71°
2026-05-07 16:55 54.37057 -37.18560 35375 ft 508 kts 71°
2026-05-07 16:56 54.38467 -37.06658 35341 ft 509 kts 71°
2026-05-07 16:56 54.40522 -36.89107 35333 ft 510 kts 71°
2026-05-07 16:57 54.41903 -36.77166 35339 ft 510 kts 71°
2026-05-07 16:57 54.43265 -36.65295 35344 ft 509 kts 71°
2026-05-07 16:58 54.44622 -36.53351 35346 ft 509 kts 71°
2026-05-07 16:58 54.45966 -36.41410 35341 ft 508 kts 71°
2026-05-07 16:59 54.47296 -36.29479 35338 ft 507 kts 71°
2026-05-07 16:59 54.48606 -36.17620 35346 ft 507 kts 71°
2026-05-07 17:00 54.49909 -36.05721 35403 ft 506 kts 71°
2026-05-07 17:00 54.51190 -35.93916 35379 ft 510 kts 71°
2026-05-07 17:01 54.51840 -35.87891 35569 ft 513 kts 71°
2026-05-07 17:01 54.52491 -35.81830 35613 ft 514 kts 71°
2026-05-07 17:01 54.53762 -35.69805 35631 ft 507 kts 71°
2026-05-07 17:02 54.55012 -35.57885 35645 ft 505 kts 71°
2026-05-07 17:02 54.56258 -35.45952 35689 ft 506 kts 71°
2026-05-07 17:03 54.57496 -35.33973 35658 ft 507 kts 71°
2026-05-07 17:03 54.58711 -35.22065 35647 ft 507 kts 71°
2026-05-07 17:04 54.59923 -35.10064 35646 ft 507 kts 71°
2026-05-07 17:04 54.61101 -34.98269 35648 ft 507 kts 71°
2026-05-07 17:05 54.62290 -34.86257 35647 ft 507 kts 71°
2026-05-07 17:05 54.63465 -34.74256 35647 ft 507 kts 71°
2026-05-07 17:06 54.64623 -34.62295 35648 ft 507 kts 71°
2026-05-07 17:06 54.65773 -34.50291 35648 ft 507 kts 72°
2026-05-07 17:07 54.66915 -34.38243 35648 ft 507 kts 72°
2026-05-07 17:07 54.68037 -34.26277 35655 ft 509 kts 72°
2026-05-07 17:08 54.69158 -34.14181 35649 ft 508 kts 72°
2026-05-07 17:08 54.70262 -34.02123 35660 ft 508 kts 72°
2026-05-07 17:09 54.71340 -33.90219 35640 ft 507 kts 72°
2026-05-07 17:09 54.72419 -33.78161 35654 ft 507 kts 72°
2026-05-07 17:10 54.73480 -33.66181 35652 ft 507 kts 72°
2026-05-07 17:10 54.74537 -33.54101 35646 ft 506 kts 72°
2026-05-07 17:11 54.75580 -33.42044 35647 ft 506 kts 72°
2026-05-07 17:11 54.76611 -33.29968 35647 ft 506 kts 72°
2026-05-07 17:12 54.77632 -33.17883 35689 ft 507 kts 72°
2026-05-07 17:12 54.78633 -33.05873 35651 ft 508 kts 72°
2026-05-07 17:13 54.79616 -32.93930 35646 ft 508 kts 72°
2026-05-07 17:13 54.80601 -32.81809 35644 ft 508 kts 73°
2026-05-07 17:14 54.81574 -32.69684 35645 ft 508 kts 73°
2026-05-07 17:14 54.82535 -32.57544 35677 ft 508 kts 72°
2026-05-07 17:15 54.83486 -32.45397 35648 ft 508 kts 72°
2026-05-07 17:15 54.84420 -32.33291 35638 ft 508 kts 73°
2026-05-07 17:16 54.85345 -32.21134 35640 ft 508 kts 73°
2026-05-07 17:16 54.86261 -32.08931 35639 ft 508 kts 73°
2026-05-07 17:17 54.87147 -31.96966 35657 ft 510 kts 72°
2026-05-07 17:17 54.88041 -31.84736 35641 ft 510 kts 73°
2026-05-07 17:18 54.88916 -31.72577 35633 ft 510 kts 73°
2026-05-07 17:18 54.89784 -31.60336 35634 ft 510 kts 73°
2026-05-07 17:19 54.90642 -31.48073 35631 ft 510 kts 73°
2026-05-07 17:19 54.91485 -31.35833 35633 ft 511 kts 73°
2026-05-07 17:20 54.92316 -31.23579 35635 ft 508 kts 73°
2026-05-07 17:20 54.93123 -31.11476 35627 ft 506 kts 73°
2026-05-07 17:21 54.93912 -30.99491 35617 ft 505 kts 73°
2026-05-07 17:21 54.94698 -30.87371 35621 ft 503 kts 73°
2026-05-07 17:22 54.95473 -30.75245 35627 ft 503 kts 73°
2026-05-07 17:22 54.96228 -30.63209 35628 ft 502 kts 74°
2026-05-07 17:23 54.96974 -30.51142 35625 ft 501 kts 74°
2026-05-07 17:23 54.97707 -30.39074 35617 ft 501 kts 74°
2026-05-07 17:24 54.98431 -30.26980 35676 ft 501 kts 75°
2026-05-07 17:24 54.99139 -30.14954 35623 ft 503 kts 75°
2026-05-07 17:25 54.99728 -30.04787 35617 ft 503 kts 75°
2026-05-07 17:25 55.00352 -29.92955 35609 ft 506 kts 76°
2026-05-07 17:26 55.00830 -29.80691 35613 ft 507 kts 77°
2026-05-07 17:26 55.01269 -29.68437 35668 ft 507 kts 78°
2026-05-07 17:27 55.01720 -29.56143 35611 ft 508 kts 78°
2026-05-07 17:27 55.02170 -29.43879 35603 ft 507 kts 78°
2026-05-07 17:28 55.02611 -29.31636 35603 ft 506 kts 78°
2026-05-07 17:28 55.03040 -29.19406 35598 ft 505 kts 78°
2026-05-07 17:29 55.03456 -29.07184 35596 ft 505 kts 79°
2026-05-07 17:29 55.03852 -28.95150 35591 ft 505 kts 79°
2026-05-07 17:30 55.04240 -28.83015 35592 ft 505 kts 79°
2026-05-07 17:30 55.04619 -28.70784 35595 ft 505 kts 79°
2026-05-07 17:31 55.04986 -28.58516 35593 ft 506 kts 79°
2026-05-07 17:31 55.05341 -28.46273 35617 ft 506 kts 80°
2026-05-07 17:32 55.05683 -28.33998 35598 ft 506 kts 80°
2026-05-07 17:32 55.06009 -28.21824 35584 ft 505 kts 80°
2026-05-07 17:33 55.06325 -28.09612 35582 ft 504 kts 81°
2026-05-07 17:33 55.06625 -27.97558 35578 ft 503 kts 81°
2026-05-07 17:34 55.06918 -27.85340 35612 ft 503 kts 81°
2026-05-07 17:34 55.07198 -27.73126 35577 ft 503 kts 81°
2026-05-07 17:35 55.07465 -27.60923 35574 ft 503 kts 81°
2026-05-07 17:35 55.07718 -27.48796 35564 ft 502 kts 82°
2026-05-07 17:36 55.07960 -27.36606 35568 ft 502 kts 82°
2026-05-07 17:36 55.08191 -27.24403 35599 ft 503 kts 82°
2026-05-07 17:37 55.08410 -27.12178 35572 ft 503 kts 83°
2026-05-07 17:37 55.08616 -26.99980 35551 ft 503 kts 83°
2026-05-07 17:38 55.08807 -26.87932 35554 ft 502 kts 83°
2026-05-07 17:38 55.08988 -26.75821 35557 ft 502 kts 83°
2026-05-07 17:39 55.09157 -26.63624 35581 ft 502 kts 83°
2026-05-07 17:39 55.09315 -26.51431 35547 ft 502 kts 83°
2026-05-07 17:40 55.09460 -26.39240 35543 ft 502 kts 83°
2026-05-07 17:40 55.09593 -26.27036 35539 ft 501 kts 84°
2026-05-07 17:41 55.09713 -26.14870 35539 ft 501 kts 84°
2026-05-07 17:41 55.09821 -26.02912 35557 ft 502 kts 84°
2026-05-07 17:42 55.09916 -25.91000 35539 ft 502 kts 84°
2026-05-07 17:42 55.10000 -25.78801 35521 ft 502 kts 84°
2026-05-07 17:43 55.10072 -25.66601 35533 ft 502 kts 85°
2026-05-07 17:43 55.10133 -25.54389 35516 ft 502 kts 85°
2026-05-07 17:44 55.10181 -25.42193 35539 ft 503 kts 85°
2026-05-07 17:44 55.10217 -25.29986 35522 ft 503 kts 85°
2026-05-07 17:45 55.10241 -25.17846 35514 ft 503 kts 85°
2026-05-07 17:45 55.10253 -25.05620 35512 ft 502 kts 85°
2026-05-07 17:46 55.10252 -24.93586 35510 ft 502 kts 86°
2026-05-07 17:46 55.10240 -24.81358 35517 ft 503 kts 86°
2026-05-07 17:47 55.10215 -24.69137 35503 ft 503 kts 86°
2026-05-07 17:47 55.10178 -24.57002 35499 ft 503 kts 87°
2026-05-07 17:48 55.10129 -24.44794 35496 ft 503 kts 87°
2026-05-07 17:48 55.10068 -24.32585 35493 ft 503 kts 87°
2026-05-07 17:49 55.09995 -24.20378 35504 ft 503 kts 88°
2026-05-07 17:49 55.09909 -24.08142 35492 ft 503 kts 88°
2026-05-07 17:50 55.09812 -23.96086 35484 ft 503 kts 88°
2026-05-07 17:50 55.09702 -23.83885 35482 ft 503 kts 88°
2026-05-07 17:51 55.09580 -23.71743 35482 ft 503 kts 88°
2026-05-07 17:51 55.09446 -23.59521 35487 ft 503 kts 89°
2026-05-07 17:52 55.09299 -23.47312 35465 ft 503 kts 89°
2026-05-07 17:52 55.09140 -23.35080 35473 ft 503 kts 89°
2026-05-07 17:53 55.08969 -23.22873 35472 ft 503 kts 89°
2026-05-07 17:53 55.08786 -23.10664 35466 ft 503 kts 89°
2026-05-07 17:54 55.08594 -22.98679 35467 ft 503 kts 89°
2026-05-07 17:54 55.08386 -22.86452 35461 ft 504 kts 89°
2026-05-07 17:55 55.08166 -22.74215 35460 ft 504 kts 89°
2026-05-07 17:55 55.07935 -22.62058 35461 ft 504 kts 89°
2026-05-07 17:56 55.07690 -22.49828 35461 ft 504 kts 90°
2026-05-07 17:56 55.07433 -22.37570 35460 ft 504 kts 90°
2026-05-07 17:57 55.07210 -22.27413 35458 ft 504 kts 90°
2026-05-07 17:57 55.06884 -22.13187 35431 ft 504 kts 90°
2026-05-07 17:58 55.06590 -22.00978 35450 ft 503 kts 91°
2026-05-07 17:58 55.06289 -21.88919 35441 ft 504 kts 91°
2026-05-07 17:59 55.05971 -21.76704 35445 ft 504 kts 91°
2026-05-07 17:59 55.05641 -21.64487 35434 ft 504 kts 91°
2026-05-07 18:00 55.05298 -21.52265 35434 ft 504 kts 91°
2026-05-07 18:00 55.04946 -21.40136 35440 ft 504 kts 91°
2026-05-07 18:01 55.04579 -21.27924 35429 ft 504 kts 91°
2026-05-07 18:01 55.04200 -21.15697 35428 ft 504 kts 92°
2026-05-07 18:02 55.03616 -20.97614 35419 ft 504 kts 92°
2026-05-07 18:03 55.03210 -20.85498 35412 ft 504 kts 92°
2026-05-07 18:03 55.02789 -20.73302 35419 ft 504 kts 92°
2026-05-07 18:04 55.02356 -20.61116 35431 ft 504 kts 93°
2026-05-07 18:04 55.01910 -20.48914 35412 ft 504 kts 93°
2026-05-07 18:05 55.01451 -20.36699 35409 ft 505 kts 93°
2026-05-07 18:05 55.00981 -20.24502 35398 ft 505 kts 93°
2026-05-07 18:06 55.00500 -20.12291 35402 ft 505 kts 93°
2026-05-07 18:06 54.99825 -20.00110 35403 ft 505 kts 99°
2026-05-07 18:07 54.98086 -19.88470 35397 ft 504 kts 108°
2026-05-07 18:07 54.96003 -19.77053 35392 ft 505 kts 108°
2026-05-07 18:08 54.93882 -19.65395 35381 ft 505 kts 108°
2026-05-07 18:08 54.91787 -19.53754 35386 ft 505 kts 108°
2026-05-07 18:09 54.89695 -19.42114 35385 ft 505 kts 108°
2026-05-07 18:09 54.87590 -19.30467 35386 ft 505 kts 108°
2026-05-07 18:10 54.85831 -19.20806 35376 ft 505 kts 108°
2026-05-07 18:10 54.83352 -19.07284 35380 ft 505 kts 108°
2026-05-07 18:11 54.81243 -18.95853 35359 ft 504 kts 109°
2026-05-07 18:11 54.79456 -18.86227 35359 ft 504 kts 109°
2026-05-07 18:12 54.77299 -18.74666 35378 ft 504 kts 109°
2026-05-07 18:12 54.75127 -18.63103 35373 ft 504 kts 109°
2026-05-07 18:13 54.72948 -18.51571 35365 ft 504 kts 109°
2026-05-07 18:13 54.70772 -18.40123 35358 ft 504 kts 109°
2026-05-07 18:14 54.68573 -18.28624 35362 ft 504 kts 109°
2026-05-07 18:14 54.66362 -18.17129 35357 ft 504 kts 110°
2026-05-07 18:15 54.64140 -18.05646 35356 ft 504 kts 110°
2026-05-07 18:15 54.61940 -17.94349 35354 ft 504 kts 110°
2026-05-07 18:16 54.59694 -17.82878 35348 ft 504 kts 110°
2026-05-07 18:16 54.57443 -17.71455 35350 ft 504 kts 110°
2026-05-07 18:17 54.55189 -17.60078 35345 ft 503 kts 110°
2026-05-07 18:17 54.52913 -17.48662 35346 ft 503 kts 110°
2026-05-07 18:18 54.50630 -17.37271 35334 ft 503 kts 111°
2026-05-07 18:18 54.48338 -17.25908 35336 ft 503 kts 111°
2026-05-07 18:19 54.46037 -17.14564 35333 ft 502 kts 111°
2026-05-07 18:19 54.43734 -17.03272 35329 ft 502 kts 111°
2026-05-07 18:20 54.41443 -16.92103 35333 ft 502 kts 111°
2026-05-07 18:20 54.39110 -16.80794 35319 ft 502 kts 111°
2026-05-07 18:21 54.36763 -16.69480 35323 ft 502 kts 111°
2026-05-07 18:21 54.34426 -16.58281 35326 ft 502 kts 112°
2026-05-07 18:22 54.32067 -16.47036 35325 ft 502 kts 112°
2026-05-07 18:22 54.29691 -16.35775 35324 ft 502 kts 112°
2026-05-07 18:23 54.27306 -16.24533 35324 ft 502 kts 112°
2026-05-07 18:23 54.24913 -16.13315 35322 ft 501 kts 112°
2026-05-07 18:24 54.22529 -16.02194 35315 ft 501 kts 112°
2026-05-07 18:24 54.20162 -15.91219 35298 ft 501 kts 113°
2026-05-07 18:25 54.17747 -15.80079 35309 ft 500 kts 113°
2026-05-07 18:25 54.15320 -15.68951 35311 ft 499 kts 113°
2026-05-07 18:26 54.12888 -15.57851 35302 ft 499 kts 113°
2026-05-07 18:26 54.10447 -15.46772 35305 ft 499 kts 114°
2026-05-07 18:27 54.08001 -15.35729 35302 ft 498 kts 114°
2026-05-07 18:27 54.05545 -15.24700 35302 ft 497 kts 114°
2026-05-07 18:28 54.03086 -15.13702 35298 ft 497 kts 114°
2026-05-07 18:28 54.00897 -15.02632 35300 ft 500 kts 105°
2026-05-07 18:29 53.99936 -14.91183 35303 ft 504 kts 94°
2026-05-07 18:29 53.99955 -14.79241 35296 ft 506 kts 91°
2026-05-07 18:30 54.00058 -14.67286 35294 ft 507 kts 91°
2026-05-07 18:30 54.00099 -14.55289 35197 ft 505 kts 92°
2026-05-07 18:30 54.00102 -14.49322 35079 ft 504 kts 92°
2026-05-07 18:31 54.00099 -14.43436 35038 ft 505 kts 92°
2026-05-07 18:31 54.00084 -14.31451 34987 ft 508 kts 92°
2026-05-07 18:32 54.00063 -14.19420 34976 ft 509 kts 92°
2026-05-07 18:32 54.00006 -14.07393 34977 ft 508 kts 95°
2026-05-07 18:33 53.99039 -13.95776 34983 ft 504 kts 106°
2026-05-07 18:33 53.96958 -13.84480 34985 ft 500 kts 112°
2026-05-07 18:34 53.94643 -13.73410 34960 ft 500 kts 113°
2026-05-07 18:34 53.92325 -13.62285 34971 ft 500 kts 113°
2026-05-07 18:35 53.90026 -13.51158 34971 ft 500 kts 112°
2026-05-07 18:35 53.87727 -13.40023 34976 ft 500 kts 112°
2026-05-07 18:36 53.85415 -13.28885 34967 ft 501 kts 113°
2026-05-07 18:36 53.83092 -13.17766 34954 ft 501 kts 113°
2026-05-07 18:37 53.80777 -13.06745 34972 ft 499 kts 113°
2026-05-07 18:37 53.78476 -12.95854 34948 ft 498 kts 114°
2026-05-07 18:38 53.76147 -12.84893 34960 ft 497 kts 114°
2026-05-07 18:38 53.73799 -12.73899 34965 ft 496 kts 114°
2026-05-07 18:39 53.71447 -12.62952 34965 ft 496 kts 114°
2026-05-07 18:39 53.69083 -12.52003 34961 ft 495 kts 114°
2026-05-07 18:40 53.66713 -12.41080 34963 ft 495 kts 114°
2026-05-07 18:40 53.64350 -12.30253 34960 ft 494 kts 114°
2026-05-07 18:41 53.61963 -12.19370 34932 ft 494 kts 114°
2026-05-07 18:41 53.59571 -12.08523 34949 ft 494 kts 114°
2026-05-07 18:42 53.57207 -11.97861 34947 ft 494 kts 114°
2026-05-07 18:42 53.54807 -11.87086 34951 ft 494 kts 114°
2026-05-07 18:43 53.52388 -11.76284 34964 ft 493 kts 115°
2026-05-07 18:43 53.49962 -11.65508 34953 ft 493 kts 115°
2026-05-07 18:44 53.47525 -11.54740 34951 ft 492 kts 115°
2026-05-07 18:44 53.45084 -11.44006 34949 ft 492 kts 115°
2026-05-07 18:45 53.42644 -11.33330 34946 ft 490 kts 115°
2026-05-07 18:45 53.40197 -11.22680 34948 ft 489 kts 115°
2026-05-07 18:46 53.37760 -11.12125 34950 ft 488 kts 115°
2026-05-07 18:46 53.35304 -11.01539 34951 ft 488 kts 115°
2026-05-07 18:47 53.32890 -10.91188 34948 ft 487 kts 115°
2026-05-07 18:47 53.30411 -10.80611 34949 ft 487 kts 115°
2026-05-07 18:48 53.27926 -10.70056 34949 ft 488 kts 115°
2026-05-07 18:48 53.25448 -10.59585 34934 ft 489 kts 115°
2026-05-07 18:48 53.24190 -10.54294 35099 ft 492 kts 115°
2026-05-07 18:49 53.22921 -10.48966 35319 ft 494 kts 115°
2026-05-07 18:49 53.21650 -10.43642 35581 ft 496 kts 115°
2026-05-07 18:49 53.20379 -10.38330 35823 ft 497 kts 115°
2026-05-07 18:49 53.19093 -10.32970 36047 ft 499 kts 115°
2026-05-07 18:50 53.17796 -10.27575 36331 ft 499 kts 115°
2026-05-07 18:50 53.16503 -10.22207 36733 ft 497 kts 115°
2026-05-07 18:50 53.15215 -10.16872 36976 ft 497 kts 115°
2026-05-07 18:51 53.12622 -10.06181 36946 ft 500 kts 115°
2026-05-07 18:51 53.10072 -9.95712 36939 ft 496 kts 115°
2026-05-07 18:52 53.07472 -9.85092 36945 ft 494 kts 115°
2026-05-07 18:52 53.04871 -9.74522 36947 ft 493 kts 115°
2026-05-07 18:53 53.02261 -9.63970 36942 ft 494 kts 115°
2026-05-07 18:53 52.99674 -9.53557 36947 ft 495 kts 115°
2026-05-07 18:54 52.97035 -9.42986 36956 ft 496 kts 115°
2026-05-07 18:54 52.94382 -9.32406 36955 ft 497 kts 115°
2026-05-07 18:55 52.91711 -9.21808 36957 ft 498 kts 115°
2026-05-07 18:55 52.89027 -9.11206 36933 ft 498 kts 115°
2026-05-07 18:56 52.86336 -9.00630 36947 ft 498 kts 115°
2026-05-07 18:56 52.83712 -8.90358 36952 ft 498 kts 115°
2026-05-07 18:57 52.80999 -8.79794 36969 ft 498 kts 115°
2026-05-07 18:57 52.78278 -8.69247 36956 ft 498 kts 115°
2026-05-07 18:58 52.76014 -8.60510 36952 ft 498 kts 115°
2026-05-07 18:58 52.72837 -8.48302 36966 ft 497 kts 115°
2026-05-07 18:59 52.70100 -8.37839 36950 ft 496 kts 115°
2026-05-07 18:59 52.67357 -8.27405 36957 ft 496 kts 115°
2026-05-07 19:00 52.65069 -8.18735 36961 ft 496 kts 115°
2026-05-07 19:00 52.62310 -8.08321 36961 ft 496 kts 115°
2026-05-07 19:01 52.59602 -7.98153 36955 ft 495 kts 115°
2026-05-07 19:01 52.56825 -7.87768 36962 ft 495 kts 115°
2026-05-07 19:02 52.54045 -7.77420 36958 ft 495 kts 116°
2026-05-07 19:02 52.51257 -7.67090 36948 ft 495 kts 116°
2026-05-07 19:03 52.48455 -7.56751 36961 ft 495 kts 116°
2026-05-07 19:03 52.45649 -7.46447 36958 ft 495 kts 116°
2026-05-07 19:04 52.42836 -7.36160 36967 ft 494 kts 116°
2026-05-07 19:04 52.40032 -7.25952 36966 ft 494 kts 116°
2026-05-07 19:05 52.37200 -7.15689 36973 ft 494 kts 116°
2026-05-07 19:05 52.34361 -7.05445 36974 ft 494 kts 116°
2026-05-07 19:06 52.31571 -6.95420 36960 ft 494 kts 116°
2026-05-07 19:06 52.27290 -6.80121 36976 ft 493 kts 116°
2026-05-07 19:07 52.24447 -6.70020 36988 ft 492 kts 117°
2026-05-07 19:07 52.21578 -6.59869 36982 ft 492 kts 117°
2026-05-07 19:08 52.18702 -6.49736 36986 ft 492 kts 117°
2026-05-07 19:08 52.15822 -6.39629 36976 ft 492 kts 117°
2026-05-07 19:09 52.12955 -6.29612 36991 ft 491 kts 117°
2026-05-07 19:09 52.10055 -6.19524 36984 ft 491 kts 117°
2026-05-07 19:10 52.07150 -6.09454 36982 ft 491 kts 117°
2026-05-07 19:10 52.04315 -5.99616 37005 ft 491 kts 117°
2026-05-07 19:11 52.01481 -5.89534 37012 ft 491 kts 116°
2026-05-07 19:11 51.98651 -5.79450 37010 ft 491 kts 117°
2026-05-07 19:12 51.95802 -5.69379 37003 ft 491 kts 117°
2026-05-07 19:12 51.92936 -5.59312 37006 ft 491 kts 117°
2026-05-07 19:13 51.90063 -5.49268 37001 ft 491 kts 117°
2026-05-07 19:13 51.87200 -5.39298 37011 ft 491 kts 117°
2026-05-07 19:14 51.84312 -5.29281 37010 ft 491 kts 117°
2026-05-07 19:14 51.81414 -5.19273 37011 ft 491 kts 117°
2026-05-07 19:15 51.78510 -5.09279 37015 ft 491 kts 117°
2026-05-07 19:15 51.75751 -4.99460 37012 ft 491 kts 115°
2026-05-07 19:16 51.73129 -4.89334 37010 ft 492 kts 115°
2026-05-07 19:16 51.70490 -4.79167 37009 ft 491 kts 115°
2026-05-07 19:17 51.67806 -4.69020 37014 ft 490 kts 115°
2026-05-07 19:17 51.65111 -4.58929 37012 ft 490 kts 115°
2026-05-07 19:18 51.62409 -4.48852 37016 ft 490 kts 116°
2026-05-07 19:18 51.59716 -4.38840 37016 ft 490 kts 116°
2026-05-07 19:19 51.57007 -4.28805 37012 ft 489 kts 116°
2026-05-07 19:19 51.54498 -4.18613 37017 ft 491 kts 109°
2026-05-07 19:20 51.53045 -4.07870 37026 ft 494 kts 101°
2026-05-07 19:20 51.51943 -3.97208 37017 ft 494 kts 102°
2026-05-07 19:21 51.50733 -3.86351 37010 ft 494 kts 102°
2026-05-07 19:21 51.49462 -3.75516 37022 ft 494 kts 103°
2026-05-07 19:22 51.48183 -3.64692 37025 ft 494 kts 102°
2026-05-07 19:22 51.47327 -3.53808 37030 ft 495 kts 97°
2026-05-07 19:23 51.46725 -3.42780 37022 ft 496 kts 97°
2026-05-07 19:23 51.46420 -3.37239 36537 ft 502 kts 97°
2026-05-07 19:23 51.46102 -3.31657 35849 ft 501 kts 97°
2026-05-07 19:24 51.45775 -3.26107 35113 ft 499 kts 97°
2026-05-07 19:24 51.45444 -3.20594 34597 ft 492 kts 98°
2026-05-07 19:24 51.45114 -3.15190 34066 ft 486 kts 98°
2026-05-07 19:24 51.44784 -3.09830 33475 ft 480 kts 98°
2026-05-07 19:25 51.44455 -3.04535 32936 ft 473 kts 98°
2026-05-07 19:25 51.44160 -2.99818 32482 ft 468 kts 98°
2026-05-07 19:25 51.43848 -2.94846 31991 ft 463 kts 98°
2026-05-07 19:25 51.43529 -2.89809 31489 ft 458 kts 98°
2026-05-07 19:26 51.43207 -2.84754 30997 ft 453 kts 98°
2026-05-07 19:26 51.42893 -2.79859 30511 ft 449 kts 98°
2026-05-07 19:26 51.42573 -2.74912 30021 ft 445 kts 98°
2026-05-07 19:26 51.42254 -2.70002 29468 ft 441 kts 98°
2026-05-07 19:27 51.41937 -2.65147 28964 ft 436 kts 98°
2026-05-07 19:27 51.41622 -2.60350 28466 ft 431 kts 98°
2026-05-07 19:27 51.41308 -2.55597 27988 ft 427 kts 98°
2026-05-07 19:27 51.40994 -2.50877 27505 ft 423 kts 98°
2026-05-07 19:28 51.40682 -2.46211 27004 ft 420 kts 98°
2026-05-07 19:28 51.40369 -2.41579 26544 ft 417 kts 98°
2026-05-07 19:28 51.40055 -2.36977 26069 ft 414 kts 98°
2026-05-07 19:28 51.39743 -2.32411 25604 ft 411 kts 98°
2026-05-07 19:29 51.39431 -2.27879 25138 ft 409 kts 98°
2026-05-07 19:29 51.39120 -2.23371 24691 ft 406 kts 98°
2026-05-07 19:29 51.38811 -2.18931 24243 ft 404 kts 98°
2026-05-07 19:29 51.38499 -2.14461 23789 ft 402 kts 98°
2026-05-07 19:30 51.38187 -2.10013 23291 ft 401 kts 98°
2026-05-07 19:30 51.37877 -2.05596 22767 ft 398 kts 98°
2026-05-07 19:30 51.37565 -2.01209 22311 ft 395 kts 98°
2026-05-07 19:30 51.37279 -1.97208 21894 ft 393 kts 98°
2026-05-07 19:31 51.36970 -1.92903 21377 ft 383 kts 98°
2026-05-07 19:31 51.36670 -1.88733 20332 ft 374 kts 98°
2026-05-07 19:31 51.36371 -1.84618 19191 ft 371 kts 98°
2026-05-07 19:31 51.36072 -1.80525 18014 ft 369 kts 98°
2026-05-07 19:32 51.35775 -1.76473 16829 ft 364 kts 98°
2026-05-07 19:32 51.35482 -1.72489 15783 ft 357 kts 98°
2026-05-07 19:32 51.35194 -1.68580 14815 ft 351 kts 98°
2026-05-07 19:32 51.34905 -1.64686 14400 ft 356 kts 98°
2026-05-07 19:33 51.34614 -1.60787 14213 ft 344 kts 98°
2026-05-07 19:33 51.34345 -1.57164 13959 ft 321 kts 99°
2026-05-07 19:33 51.34087 -1.53704 13324 ft 308 kts 99°
2026-05-07 19:33 51.33835 -1.50331 12512 ft 303 kts 98°
2026-05-07 19:34 51.33585 -1.46992 11671 ft 300 kts 98°
2026-05-07 19:34 51.33339 -1.43725 11316 ft 290 kts 98°
2026-05-07 19:34 51.33102 -1.40578 11123 ft 280 kts 98°
2026-05-07 19:34 51.32872 -1.37537 11154 ft 276 kts 98°
2026-05-07 19:35 51.32637 -1.34461 11172 ft 285 kts 98°
2026-05-07 19:35 51.32397 -1.31309 11165 ft 285 kts 98°
2026-05-07 19:35 51.32159 -1.28186 11124 ft 282 kts 98°
2026-05-07 19:35 51.31922 -1.25080 10881 ft 279 kts 98°
2026-05-07 19:36 51.31690 -1.22061 10363 ft 272 kts 98°
2026-05-07 19:36 51.31457 -1.19055 9607 ft 274 kts 98°
2026-05-07 19:36 51.31254 -1.16047 8913 ft 271 kts 94°
2026-05-07 19:36 51.31201 -1.13070 8327 ft 264 kts 91°
2026-05-07 19:37 51.31193 -1.10110 8178 ft 271 kts 90°
2026-05-07 19:37 51.31185 -1.07086 8051 ft 269 kts 90°
2026-05-07 19:37 51.31172 -1.04181 8027 ft 261 kts 91°
2026-05-07 19:37 51.31154 -1.01300 7924 ft 255 kts 91°
2026-05-07 19:38 51.31142 -0.98703 7689 ft 240 kts 87°
2026-05-07 19:38 51.31573 -0.96203 7149 ft 234 kts 56°
2026-05-07 19:38 51.32736 -0.94476 6582 ft 227 kts 27°
2026-05-07 19:38 51.34165 -0.93441 6002 ft 225 kts 22°
2026-05-07 19:39 51.35588 -0.92567 5403 ft 224 kts 21°
2026-05-07 19:39 51.37060 -0.91705 5155 ft 221 kts 20°
2026-05-07 19:39 51.38539 -0.90848 5032 ft 231 kts 20°
2026-05-07 19:39 51.39541 -0.90268 5018 ft 231 kts 21°
2026-05-07 19:40 51.41537 -0.89133 4513 ft 227 kts 21°
2026-05-07 19:40 51.43005 -0.88309 4203 ft 219 kts 20°
2026-05-07 19:40 51.44334 -0.87354 4032 ft 202 kts 42°
2026-05-07 19:40 51.45158 -0.85685 4037 ft 192 kts 60°
2026-05-07 19:41 51.45841 -0.83851 3915 ft 192 kts 60°
2026-05-07 19:41 51.46508 -0.82036 3695 ft 187 kts 60°
2026-05-07 19:41 51.47157 -0.80239 3409 ft 184 kts 65°
2026-05-07 19:41 51.47449 -0.78331 3128 ft 171 kts 85°
2026-05-07 19:42 51.47566 -0.76502 3027 ft 160 kts 86°
2026-05-07 19:42 51.47618 -0.75040 3079 ft 160 kts 88°
2026-05-07 19:42 51.47649 -0.73223 3033 ft 166 kts 89°
2026-05-07 19:42 51.47664 -0.71375 2919 ft 167 kts 90°
2026-05-07 19:43 51.47673 -0.69565 2698 ft 162 kts 91°
2026-05-07 19:43 51.47679 -0.67750 2473 ft 159 kts 91°
2026-05-07 19:43 51.47686 -0.65980 2267 ft 162 kts 91°
2026-05-07 19:43 51.47692 -0.64159 2042 ft 164 kts 91°
2026-05-07 19:44 51.47699 -0.62338 1822 ft 162 kts 91°
2026-05-07 19:44 51.47705 -0.60735 1624 ft 161 kts 91°
2026-05-07 19:44 51.47711 -0.58934 1404 ft 163 kts 91°
2026-05-07 19:44 51.47716 -0.57723 1241 ft 160 kts 92°
2026-05-07 19:45 51.47724 -0.55462 948 ft 143 kts 92°
2026-05-07 19:45 51.47727 -0.54598 876 ft 141 kts 92°
2026-05-07 19:45 51.47736 -0.53088 732 ft 141 kts 91°
2026-05-07 19:45 51.47746 -0.52076 586 ft 142 kts 91°
2026-05-07 19:46 51.47751 -0.50929 436 ft 137 kts 92°
2026-05-07 19:46 51.47748 -0.50262 336 ft 136 kts 92°
2026-05-07 19:46 51.47751 -0.49195 202 ft 137 kts 90°
2026-05-07 19:46 51.47758 -0.48141 104 ft 134 kts 92°
2026-05-07 19:47 51.47756 -0.47208 94 ft 118 kts 90°
2026-05-07 19:47 51.47759 -0.46121 94 ft 74 kts 89°
2026-05-07 19:47 51.47756 -0.45568 93 ft 28 kts 102°
2026-05-07 19:47 51.47663 -0.45468 91 ft 11 kts 178°
2026-05-07 19:48 51.47618 -0.45478 96 ft 10 kts 209°
2026-05-07 19:48 51.47610 -0.45495 95 ft 0 kts 237°
2026-05-07 19:49 51.47598 -0.45536 95 ft 12 kts 251°
2026-05-07 19:50 51.47596 -0.45685 94 ft 14 kts 271°
2026-05-07 19:50 51.47598 -0.45837 91 ft 14 kts 270°
2026-05-07 19:50 51.47594 -0.45990 94 ft 14 kts 268°
2026-05-07 19:50 51.47593 -0.46142 94 ft 14 kts 271°
2026-05-07 19:51 51.47595 -0.46293 94 ft 14 kts 271°
2026-05-07 19:51 51.47595 -0.46447 94 ft 14 kts 268°
2026-05-07 19:51 51.47592 -0.46602 92 ft 14 kts 269°
2026-05-07 19:51 51.47591 -0.46757 91 ft 14 kts 269°
2026-05-07 19:52 51.47584 -0.46912 94 ft 14 kts 268°
2026-05-07 19:52 51.47584 -0.47068 94 ft 14 kts 270°
2026-05-07 19:52 51.47583 -0.47224 94 ft 14 kts 270°
2026-05-07 19:52 51.47582 -0.47379 94 ft 14 kts 269°
2026-05-07 19:53 51.47580 -0.47535 94 ft 14 kts 270°
2026-05-07 19:53 51.47580 -0.47692 94 ft 14 kts 270°
2026-05-07 19:53 51.47579 -0.47847 94 ft 14 kts 268°
2026-05-07 19:53 51.47577 -0.48003 94 ft 14 kts 269°
2026-05-07 19:54 51.47578 -0.48158 95 ft 14 kts 271°
2026-05-07 19:54 51.47570 -0.48316 93 ft 14 kts 243°
2026-05-07 19:54 51.47478 -0.48358 94 ft 15 kts 183°
2026-05-07 19:54 51.47376 -0.48359 94 ft 15 kts 180°
2026-05-07 19:55 51.47274 -0.48358 94 ft 15 kts 179°
2026-05-07 19:55 51.47226 -0.48357 94 ft 0 kts 179°
2026-05-07 19:55 51.47225 -0.48357 94 ft 1 kts 179°
2026-05-07 19:55 51.47215 -0.48357 94 ft 2 kts 179°
2026-05-07 19:56 51.47196 -0.48349 94 ft 4 kts 145°
2026-05-07 19:56 51.47184 -0.48305 94 ft 5 kts 102°
2026-05-07 19:56 51.47182 -0.48247 94 ft 4 kts 90°
2026-05-07 19:56 51.47182 -0.48238 91 ft 0 kts 90°